Regional Weather Roundup
Issued by NWS

Home | Current Version | Previous Version | Graphics & Text | Print | Product List | Glossary Off
Versions: 1 2 3 4 5 6 7 8 9 10 11 12 13 14 15 16 17 18 19 20 21 22 23 24 25 26 27 28 29 30 31 32 33 34 35 36 37 38 39 40 41 42 43 44 45 46 47 48 49 50

000
ASUS43 KMKX 201210
RWRWI

WISCONSIN REGIONAL WEATHER ROUNDUP
NATIONAL WEATHER SERVICE MILWAUKEE/SULLIVAN WI
700 AM CDT SUN MAY 20 2018

NOTE: "FAIR" INDICATES FEW OR NO CLOUDS BELOW 12,000 FEET WITH NO
SIGNIFICANT WEATHER AND/OR OBSTRUCTIONS TO VISIBILITY.

WIZ001-002-006>008-014>016-023>028-201300-
NORTHWEST WISCONSIN

CITY           SKY/WX    TMP DP  RH WIND       PRES   REMARKS
SUPERIOR ARPT  FAIR      33  33 100 CALM      30.29R
6HR MIN TEMP:  28; 6HR MAX TEMP:  39;

ASHLAND        FAIR      35  34  96 CALM      30.28R
6HR MIN TEMP:  28; 6HR MAX TEMP:  39;

HAYWARD        FAIR      37  34  89 N7        30.25R WCI  32
6HR MIN TEMP:  30; 6HR MAX TEMP:  40;

SIREN          FAIR      37  36  94 NE3       30.26R
6HR MIN TEMP:  32; 6HR MAX TEMP:  44;

CUMBERLAND     FAIR      39  32  75 NE9       30.24R WCI  33
RICE LAKE      FAIR      40  35  83 NE6       30.26R
6HR MIN TEMP:  37; 6HR MAX TEMP:  43;

CHETEK         FAIR      40  35  83 NE6       30.24R
6HR MIN TEMP:  39; 6HR MAX TEMP:  45;

LADYSMITH      FAIR      40  35  83 NE8       30.26R WCI  34
6HR MIN TEMP:  37; 6HR MAX TEMP:  42;

EAU CLAIRE     CLOUDY    44  37  76 NE8       30.21R
6HR MIN TEMP:  43; 6HR MAX TEMP:  48;

MENOMONIE      FAIR      44  36  73 N7        30.23R
6HR MIN TEMP:  44; 6HR MAX TEMP:  49;

NEW RICHMOND   FAIR      41  33  72 NE8       30.23R
6HR MIN TEMP:  40; 6HR MAX TEMP:  46;

OSCEOLA        FAIR      42  36  79 NE7       30.27R
6HR MIN TEMP:  37; 6HR MAX TEMP:  45;

$$

WIZ003>005-009-010-017-018-201300-
NORTH CENTRAL WISCONSIN

CITY           SKY/WX    TMP DP  RH WIND       PRES   REMARKS
MANITOWISH WTR FAIR      38  35  86 NE6       30.24R WCI  34
6HR MIN TEMP:  34; 6HR MAX TEMP:  38;

ARBOR VITAE    FAIR      39  34  81 NE6       30.23S WCI  35
6HR MIN TEMP:  37; 6HR MAX TEMP:  42;

WOODRUFF       FAIR      39  34  81 NE6       30.23S WCI  35
6HR MIN TEMP:  37; 6HR MAX TEMP:  42;

RHINELANDER    FAIR      40  35  83 NE6       30.23R
6HR MIN TEMP:  39; 6HR MAX TEMP:  43;

EAGLE RIVER    FAIR      38  32  78 NE8       30.23R WCI  32
6HR MIN TEMP:  35; 6HR MAX TEMP:  40;

LAND O LAKES   FAIR      37  34  88 CALM      30.26R
6HR MIN TEMP:  32; 6HR MAX TEMP:  40;

PHILLIPS       FAIR      37  35  92 NE7       30.23R WCI  32
6HR MIN TEMP:  33; 6HR MAX TEMP:  39;

TOMAHAWK       FAIR      39  34  81 NE3       30.24R
6HR MIN TEMP:  38; 6HR MAX TEMP:  41;

MEDFORD        FAIR      39  35  87 NE9       30.21R WCI  33
6HR MIN TEMP:  37; 6HR MAX TEMP:  42;

MERRILL        FAIR      38  38  97 NE3       30.23R
6HR MIN TEMP:  35; 6HR MAX TEMP:  43;

$$

WIZ029-030-035-036-043>047-201300-
CENTRAL WISCONSIN

CITY           SKY/WX    TMP DP  RH WIND       PRES   REMARKS
WAUSAU         FAIR      42  36  79 NE7       30.20R
6HR MIN TEMP:  42; 6HR MAX TEMP:  45;

MOSINEE        PTSUNNY   43  37  81 NE10      30.22R
MARSHFIELD     CLOUDY    45  38  76 NE10      30.19R
6HR MIN TEMP:  45; 6HR MAX TEMP:  47;

STEVENS POINT  NOT AVBL
WAUPACA        CLOUDY    48  39  70 NE5       30.21R
6HR MIN TEMP:  48; 6HR MAX TEMP:  51;

WAUTOMA        LGT RAIN  46  43  89 NE12      30.19
6HR MIN TEMP:  46; 6HR MAX TEMP:  52; 6HR PCP:  0.53;

WISC RAPIDS    CLOUDY    48  38  68 NE12      30.20R
6HR MIN TEMP:  48; 6HR MAX TEMP:  50;

CAMP DOUGLAS   CLOUDY    47  46  96 NE6       30.18R
6HR MIN TEMP:  46; 6HR MAX TEMP:  50; 6HR PCP:  1.11;

$$

WIZ011>013-019>022-031-037>040-048>050-201300-
NORTHEAST WISCONSIN

CITY           SKY/WX    TMP DP  RH WIND       PRES   REMARKS
ANTIGO         FAIR      38  36  92 NE7       30.22R WCI  32
6HR MIN TEMP:  34; 6HR MAX TEMP:  41;

SHAWANO        PTSUNNY   46  38  75 N10       30.22R
6HR MIN TEMP:  45; 6HR MAX TEMP:  49;

OCONTO         FAIR      42  36  77 N9        30.22R
6HR MIN TEMP:  42; 6HR MAX TEMP:  46;

STURGEON BAY   FAIR      43  37  79 N15       30.21R
6HR MIN TEMP:  41; 6HR MAX TEMP:  44;

GREEN BAY      CLOUDY    45  38  76 N15       30.21R
6HR MIN TEMP:  45; 6HR MAX TEMP:  49; 6HR PCP:  0.01;

MANITOWOC      CLOUDY    44  39  82 N9        30.20R
6HR MIN TEMP:  44; 6HR MAX TEMP:  48; 6HR PCP: TRACE;

APPLETON       CLOUDY    45  36  70 N14       30.17R
CLINTONVILLE   PTSUNNY   46  36  69 NE13G20   30.21R
6HR MIN TEMP:  45; 6HR MAX TEMP:  48;

OSHKOSH        CLOUDY    47  43  86 N9        30.19R
6HR MIN TEMP:  47; 6HR MAX TEMP:  53; 6HR PCP:  0.43;

$$

WIZ032>034-041-042-053>061-201300-
SOUTHWEST WISCONSIN

CITY           SKY/WX    TMP DP  RH WIND       PRES   REMARKS
LA CROSSE      CLOUDY    50  50 100 N7        30.18R
6HR MIN TEMP:  49; 6HR MAX TEMP:  55; 6HR PCP:  0.76;

SPARTA         LGT RAIN  46  45  96 NE8       30.19R
6HR MIN TEMP:  46; 6HR MAX TEMP:  51; 6HR PCP:  0.59;

VIROQUA        CLOUDY    48  47  99 NE14      30.16R
6HR MIN TEMP:  48; 6HR MAX TEMP:  52;

BOSCOBEL       CLOUDY    54  50  86 NE7       30.15R
6HR MIN TEMP:  54; 6HR MAX TEMP:  60; 6HR PCP:  0.03;

PRAIRIE DU CHI CLOUDY    55  49  82 NE10      30.12R
6HR MIN TEMP:  54; 6HR MAX TEMP:  60;

PLATTEVILLE    CLOUDY    51  51 100 E17G24    30.12S
6HR MIN TEMP:  51; 6HR MAX TEMP:  64; 6HR PCP:  0.24;

$$

WIZ056-057-062-063-064-067-068-201300-
SOUTH CENTRAL WISCONSIN

CITY           SKY/WX    TMP DP  RH WIND       PRES   REMARKS
REEDSBURG      CLOUDY    47  45  91 NE12      30.17R
6HR MIN TEMP:  47; 6HR MAX TEMP:  60;

BARABOO/DELLS  CLOUDY    46  43  87 E9G16     30.17R
6HR MIN TEMP:  46; 6HR MAX TEMP:  58;

LONE ROCK      LGT RAIN  51  50  96 E12       30.15R
6HR MIN TEMP:  51; 6HR MAX TEMP:  59; 6HR PCP:  0.05;

MINERAL POINT  LGT RAIN  50  50 100 E8        30.15R
MADISON        LGT RAIN  49  47  93 NE13      30.16R
6HR MIN TEMP:  49; 6HR MAX TEMP:  56; 6HR PCP:  0.21;

MIDDLETON      CLOUDY    51  48  92 NE8       30.16R
6HR MIN TEMP:  51; 6HR MAX TEMP:  59; 6HR PCP:  0.15;

WATERTOWN      CLOUDY    47  47  98 NE10      30.17R
6HR MIN TEMP:  47; 6HR MAX TEMP:  53; 6HR PCP:  0.08;

MONROE         LGT RAIN  46  45  93 NE7G17    30.14R
JANESVILLE     CLOUDY    48  43  81 NE13      30.15R
$$

WIZ051-052-058>065-066-070>072-201300-
SOUTHEAST WISCONSIN

CITY           SKY/WX    TMP DP  RH WIND       PRES   REMARKS
MILWAUKEE      CLOUDY    44  41  89 NE16G24   30.18R
6HR MIN TEMP:  43; 6HR MAX TEMP:  47; 6HR PCP:  0.01;

WAUKESHA       CLOUDY    43  39  87 NE12      30.17R
MILWAUKEE/TIMM CLOUDY    43  37  81 NE10G18   30.19R
RACINE         CLOUDY    43  40  89 NE20G28   30.18R
6HR MIN TEMP:  43; 6HR MAX TEMP:  47; 6HR PCP:  0.02;

BURLINGTON     CLOUDY    45  40  82 NE13G18   30.15S
6HR MIN TEMP:  45; 6HR MAX TEMP:  51;

KENOSHA        CLOUDY    44  39  82 NE15G24   30.16R
6HR MIN TEMP:  43; 6HR MAX TEMP:  49; 6HR PCP:  0.03;

FOND DU LAC    CLOUDY    48  43  82 NE12      30.20R
6HR MIN TEMP:  46; 6HR MAX TEMP:  54; 6HR PCP:  0.16;

SHEBOYGAN      CLOUDY    45  42  89 NE9       30.19R
6HR MIN TEMP:  45; 6HR MAX TEMP:  48; 6HR PCP:  0.06;

WEST BEND      CLOUDY    45  43  93 NE9       30.18R
JUNEAU         CLOUDY    46  43  90 NE7       30.20R
6HR MIN TEMP:  45; 6HR MAX TEMP:  52; 6HR PCP:  0.01;

$$

LSZ147-162-201300-
LAKE SUPERIOR

STATION/POSITION TIME  TEMP    WIND        PRES    WAVE
                       AIR SEA DIR/SP/G            HT/PER
                 (UTC) (F)     (DEG/KT/KT) (MB)    (FT/S)
W MID LAKE BUOY  1150   37 36  250/  6/  6 1025.6R   1/ 5
DEVILS ISLAND    1200   40     230/  5/  6 1026.1R
SAXON HARBOR     1130   33     190/  4/  5 1024.7R
$$

LMZ867-665-643>646-201300-
LAKE MICHIGAN

STATION/POSITION TIME  TEMP    WIND        PRES    WAVE




USA.gov is the U.S. government's official web portal to all federal, state and local government web resources and services.